Regional Weather Roundup
Issued by NWS

Home | Current Version | Previous Version | Graphics & Text | Print | Product List | Glossary On
Versions: 1 2 3 4 5 6 7 8 9 10 11 12 13 14 15 16 17 18 19 20 21 22 23 24 25 26 27 28 29 30 31 32 33 34 35 36 37 38 39 40 41 42 43 44 45 46 47 48 49 50
800
ASUS43 KOAX 272210
RWRNE

WEATHER ROUNDUP FOR NEBRASKA
NATIONAL WEATHER SERVICE OMAHA NE
500 PM CDT FRI MAY 27 2016

NOTES: SATELLITE DATA IS BEING USED TO AUGMENT CLOUD COVER ABOVE
       12000 FEET.
       "FAIR" INDICATES FEW OR NO CLOUDS BELOW 12,000 FEET WITH NO
       SIGNIFICANT WEATHER AND/OR OBSTRUCTIONS TO VISIBILITY.

  * THESE STATIONS DO NOT REPORT WEATHER SUCH AS RAIN...SNOW OR FOG.

NEZ001>004-019>022-054>056-272300-
NEBRASKA PANHANDLE

CITY           SKY/WX    TMP DP  RH WIND       PRES   REMARKS
SCOTTSBLUFF    MOSUNNY   59  44  57 MISG      29.87F
ALLIANCE       PTSUNNY   58  48  69 NE9       29.86F
CHADRON        CLOUDY    60  45  57 E3        29.85F
KIMBALL        CLOUDY    53  46  78 E5        29.90F
SIDNEY         CLOUDY    56  45  66 N12       29.88S
$$

NEZ057>060-069>072-079>082-272300-
SOUTHWEST NEBRASKA

CITY           SKY/WX    TMP DP  RH WIND       PRES   REMARKS
NORTH PLATTE   PTSUNNY   66  54  65 NE16      29.75F
IMPERIAL       HVY RAIN  54  52  94 N22       29.79R VSB 3/4
LEXINGTON      CLOUDY    67  58  72 E8        29.73F
MCCOOK         CLOUDY    62  56  80 E13       29.73S
OGALLALA       TSTM      54  51  90 W16       29.84R
$$

NEZ005>010-023>029-035>040-094-272300-
NORTH CENTRAL NEBRASKA

CITY           SKY/WX    TMP DP  RH WIND       PRES   REMARKS
VALENTINE      MOSUNNY   66  47  50 NE15      29.80F
AINSWORTH      CLOUDY    66  52  59 N12       29.78F
BROKEN BOW     PTSUNNY   69  57  65 NE15      29.73F
O`NEILL        CLOUDY    71  59  67 E9        29.74F
ORD            MOSUNNY   71  56  58 N6        29.72F
THEDFORD       PTSUNNY   67  53  59 N10       29.79F
$$

NEZ041-046>049-061>064-073>077-083>087-272300-
SOUTH CENTRAL NEBRASKA

CITY           SKY/WX    TMP DP  RH WIND       PRES   REMARKS
GRAND ISLAND   TSTM      66  59  78 E3        29.72F
AURORA         CLOUDY    70  60  70 SE9       29.71F
HASTINGS       CLOUDY    67  58  72 SE6       29.71F
HEBRON         LGT RAIN  70  63  78 NE7       29.67F
HOLDREGE       CLOUDY    64  58  81 E12       29.72S
KEARNEY *      CLOUDY    66  57  72 NE9       29.74S
YORK           CLOUDY    70  59  68 E7        29.72S
$$

NEZ011>018-030>034-042>045-272300-
NORTHEAST NEBRASKA

CITY           SKY/WX    TMP DP  RH WIND       PRES   REMARKS
NORFOLK        SUNNY     75  55  49 N6        29.71F
ALBION         MOSUNNY   74  54  49 CALM      29.72S
BLAIR          PTSUNNY   78  61  55 E9        29.71F
FREMONT        SUNNY     77  57  50 W6        29.71F
TEKAMAH        MOSUNNY   80  53  39 CALM      29.69F
WAYNE          PTSUNNY   75  57  53 CALM      29.71F
$$

NEZ050>053-065>068-078-088>093-272300-
SOUTHEAST NEBRASKA

CITY           SKY/WX    TMP DP  RH WIND       PRES   REMARKS
LINCOLN        CLOUDY    75  61  61 E7        29.70F
OMAHA EPPLEY   PTSUNNY   78  59  51 E5        29.70F
BEATRICE       CLOUDY    75  63  66 E8        29.68F
FALLS CITY     CLOUDY    77  65  66 E8        29.69F
NEBRASKA CITY  CLOUDY    74  62  67 E9        29.71S
PLATTSMOUTH    CLOUDY    76  61  58 E7        29.70F
$$

NEZ044-045-051>053-067-272300-
OMAHA AREA

CITY           SKY/WX    TMP DP  RH WIND       PRES   REMARKS
OMAHA EPPLEY   PTSUNNY   78  59  51 E5        29.70F
BLAIR          PTSUNNY   78  61  55 E9        29.71F
FREMONT        SUNNY     77  57  50 W6        29.71F
MILLARD        PTSUNNY   78  59  50 E3        29.69F
OFFUTT AFB     CLOUDY    76  62  61 NE10      29.68F
PLATTSMOUTH    CLOUDY    76  61  58 E7        29.70F
WAHOO          MOCLDY    76  57  51 NE5       29.70S
$$




USA.gov is the U.S. government's official web portal to all federal, state and local government web resources and services.